Date String (YYYY-MM-DD hh:mm:ss) UTC,Instrument flags,Ambient pressure (hPa),Sample flow (lpm),Bypass flow (lpm),Sample temperature (°C),Ambient temperature (°C),ASC tube jacket temperature (°C),LED temperature (°C),Box temperature (°C),Sample RH (%),Span deviation,Mass concentration (μg/m³),Mass concentration (μg/m³),Mass concentration (μg/m³)
DateTimeUTC,F1_M11,P_M11,Q1_M11,Q2_M11,T1_M11,T2_M11,T3_M11,T4_M11,T5_M11,U1_M11,ZSPAN_M11,X2_M11,X0_M11,X1_M11
2022-08-05 00:00:00,,0826.2,4.99,0.00,29.4,27.2,00.0,38.0,31.2,22.1,0001.1,0008.62,0023.32,0006.51
2022-08-05 00:01:00,,0826.2,5.00,0.00,29.3,27.4,00.0,38.0,31.1,22.1,0001.1,0008.57,0022.87,0006.49
2022-08-05 00:02:00,,0826.1,5.00,0.00,29.3,27.6,00.0,38.0,31.2,22.1,0001.2,0008.59,0021.56,0006.49
2022-08-05 00:03:00,,0826.2,4.99,0.00,29.3,27.8,00.0,38.0,31.2,22.1,0000.9,0008.61,0021.71,0006.50
2022-08-05 00:04:00,,0826.2,5.00,0.00,29.4,28.0,00.0,38.1,31.3,22.1,0000.8,0008.61,0021.08,0006.50
2022-08-05 00:05:00,,0826.1,5.00,0.00,29.4,28.2,00.0,38.1,31.4,22.2,0000.8,0008.57,0020.43,0006.49
2022-08-05 00:06:00,,0826.2,5.00,0.00,29.5,28.1,00.0,38.1,31.4,22.8,0000.6,0008.59,0020.36,0006.50
2022-08-05 00:07:00,,0826.2,5.00,0.00,29.4,27.4,00.0,38.1,31.2,22.4,0001.2,0008.57,0020.49,0006.50
2022-08-05 00:08:00,,0826.2,5.00,0.00,29.4,27.2,00.0,38.0,31.2,22.3,0001.5,0008.61,0020.87,0006.51
2022-08-05 00:09:00,,0826.2,5.00,0.00,29.3,27.3,00.0,38.0,31.1,22.6,0001.7,0008.55,0020.41,0006.53
2022-08-05 00:10:00,,0826.2,5.01,0.00,29.3,27.5,00.0,38.0,31.1,22.9,0001.8,0008.51,0019.98,0006.52
2022-08-05 00:11:00,,0826.2,5.00,0.00,29.3,27.7,00.0,38.0,31.2,22.9,0001.9,0008.46,0019.71,0006.52
2022-08-05 00:12:00,,0826.2,4.99,0.00,29.4,27.9,00.0,38.1,31.3,22.8,0001.6,0008.53,0019.98,0006.53
2022-08-05 00:13:00,,0826.2,5.00,0.00,29.4,28.1,00.0,38.1,31.4,22.3,0001.1,0008.58,0019.54,0006.55
2022-08-05 00:14:00,,0826.2,5.00,0.00,29.4,28.0,00.0,38.1,31.3,22.5,0001.2,0008.61,0018.81,0006.59
2022-08-05 00:15:00,,0826.2,5.01,0.00,29.4,27.3,00.0,38.1,31.1,22.6,0001.3,0008.69,0019.00,0006.63
2022-08-05 00:16:00,,0826.2,5.00,0.00,29.3,27.1,00.0,38.1,31.1,23.0,0001.3,0008.71,0018.86,0006.67
2022-08-05 00:17:00,,0826.1,4.99,0.00,29.3,27.2,00.0,38.0,31.1,22.8,0001.6,0008.68,0018.23,0006.69
2022-08-05 00:18:00,,0826.0,5.00,0.00,29.3,27.4,00.0,38.0,31.1,22.2,0001.3,0008.63,0017.82,0006.71
2022-08-05 00:19:00,,0826.0,5.00,0.00,29.3,27.6,00.0,38.0,31.2,22.6,0001.4,0008.57,0017.47,0006.72
2022-08-05 00:20:00,,0826.0,5.01,0.00,29.3,27.9,00.0,38.0,31.3,23.2,0001.3,0008.67,0017.49,0006.73
2022-08-05 00:21:00,,0826.1,4.98,0.00,29.4,28.1,00.0,38.1,31.4,23.5,0001.3,0008.75,0018.02,0006.74
2022-08-05 00:22:00,,0826.1,5.00,0.00,29.4,28.2,00.0,38.1,31.4,23.0,0001.4,0008.81,0018.69,0006.77
2022-08-05 00:23:00,,0826.0,5.00,0.00,29.4,27.8,00.0,38.1,31.3,23.0,0001.9,0008.85,0018.73,0006.79
2022-08-05 00:24:00,,0826.0,5.00,0.00,29.4,27.3,00.0,38.1,31.2,22.5,0002.3,0008.84,0018.52,0006.79
2022-08-05 00:25:00,,0826.0,4.99,0.00,29.4,27.2,00.0,38.1,31.2,22.2,0002.4,0008.85,0018.79,0006.79
2022-08-05 00:26:00,,0826.0,5.00,0.00,29.3,27.4,00.0,38.0,31.1,22.7,0002.5,0008.88,0018.96,0006.78
2022-08-05 00:27:00,,0826.0,5.01,0.00,29.3,27.6,00.0,38.1,31.2,22.3,0002.0,0008.98,0019.30,0006.76
2022-08-05 00:28:00,,0826.0,5.00,0.00,29.3,27.8,00.0,38.1,31.3,21.9,0001.5,0009.02,0019.91,0006.75
2022-08-05 00:29:00,,0826.0,4.99,0.00,29.4,28.0,00.0,38.1,31.3,22.1,0001.6,0009.03,0019.52,0006.73
2022-08-05 00:30:00,,0826.0,4.99,0.00,29.4,28.2,00.0,38.1,31.4,21.6,0001.4,0009.09,0019.27,0006.73
2022-08-05 00:31:00,,0826.1,5.00,0.00,29.5,28.1,00.0,38.1,31.4,21.5,0001.0,0009.05,0018.90,0006.73
2022-08-05 00:32:00,,0826.0,5.01,0.00,29.4,27.5,00.0,38.1,31.2,21.7,0001.2,0009.01,0018.52,0006.72
2022-08-05 00:33:00,,0826.0,4.99,0.00,29.4,27.2,00.0,38.1,31.2,21.9,0001.2,0009.07,0018.31,0006.74
2022-08-05 00:34:00,,0826.0,5.00,0.00,29.4,27.3,00.0,38.1,31.2,23.1,0000.9,0009.01,0018.61,0006.74
2022-08-05 00:35:00,,0826.0,5.01,0.00,29.3,27.5,00.0,38.1,31.2,24.6,0001.1,0009.01,0019.54,0006.75
2022-08-05 00:36:00,,0826.0,5.00,0.00,29.3,27.7,00.0,38.1,31.2,24.0,0001.4,0009.04,0021.74,0006.73
2022-08-05 00:37:00,,0826.0,4.99,0.00,29.4,27.9,00.0,38.1,31.3,24.2,0001.3,0009.01,0023.38,0006.72
2022-08-05 00:38:00,,0826.0,5.01,0.00,29.4,28.1,00.0,38.1,31.4,24.8,0001.6,0008.92,0023.89,0006.72
2022-08-05 00:39:00,,0826.0,5.00,0.00,29.5,28.0,00.0,38.1,31.4,24.7,0001.8,0008.88,0023.77,0006.73
2022-08-05 00:40:00,,0826.0,4.99,0.00,29.4,27.5,00.0,38.1,31.3,24.1,0002.0,0008.93,0024.70,0006.73
2022-08-05 00:41:00,,0826.0,5.01,0.00,29.4,27.2,00.0,38.1,31.2,23.4,0002.2,0008.88,0026.34,0006.74
2022-08-05 00:42:00,,0826.0,4.99,0.00,29.3,27.2,00.0,38.0,31.2,23.4,0002.3,0008.89,0026.72,0006.74
2022-08-05 00:43:00,,0826.0,5.02,0.00,29.3,27.4,00.0,38.0,31.1,23.2,0002.2,0008.91,0027.08,0006.74
2022-08-05 00:44:00,,0826.0,4.99,0.00,29.3,27.6,00.0,38.0,31.2,23.6,0002.0,0008.94,0027.17,0006.73
2022-08-05 00:45:00,,0826.0,5.00,0.00,29.3,27.8,00.0,38.1,31.3,23.4,0002.4,0008.99,0027.47,0006.73
2022-08-05 00:46:00,,0826.0,4.99,0.00,29.4,28.0,00.0,38.1,31.4,23.4,0002.1,0009.04,0027.87,0006.73
2022-08-05 00:47:00,,0826.0,5.00,0.00,29.4,28.2,00.0,38.1,31.4,23.5,0002.0,0008.96,0025.43,0006.73
2022-08-05 00:48:00,,0826.0,5.00,0.00,29.5,27.8,00.0,38.1,31.4,23.1,0001.6,0008.94,0023.69,0006.72
2022-08-05 00:49:00,,0826.0,5.00,0.00,29.4,27.3,00.0,38.1,31.2,22.6,0001.6,0009.01,0023.48,0006.72
2022-08-05 00:50:00,,0826.0,5.00,0.00,29.4,27.2,00.0,38.1,31.2,22.5,0001.8,0009.06,0023.28,0006.73
2022-08-05 00:51:00,,0826.0,5.01,0.00,29.3,27.3,00.0,38.1,31.1,22.6,0001.8,0009.13,0022.41,0006.75
2022-08-05 00:52:00,,0825.9,4.99,0.00,29.3,27.5,00.0,38.1,31.2,23.1,0001.6,0009.21,0020.88,0006.75
2022-08-05 00:53:00,,0826.0,4.99,0.00,29.3,27.7,00.0,38.1,31.2,22.7,0001.8,0009.22,0020.11,0006.76
2022-08-05 00:54:00,,0825.9,5.01,0.00,29.4,27.9,00.0,38.1,31.3,23.3,0002.0,0009.23,0019.88,0006.76
2022-08-05 00:55:00,,0825.9,5.00,0.00,29.4,28.2,00.0,38.1,31.4,23.4,0001.9,0009.17,0020.05,0006.76
2022-08-05 00:56:00,,0825.9,5.00,0.00,29.5,28.3,00.0,38.1,31.4,23.7,0001.4,0009.09,0019.89,0006.75
2022-08-05 00:57:00,,0825.9,5.00,0.00,29.5,27.9,00.0,38.1,31.3,23.5,0001.2,0009.04,0019.25,0006.76
2022-08-05 00:58:00,,0826.0,5.01,0.00,29.4,27.3,00.0,38.1,31.2,23.6,0001.2,0009.09,0020.00,0006.77
2022-08-05 00:59:00,,0825.9,4.99,0.00,29.4,27.2,00.0,38.1,31.2,23.8,0001.5,0009.13,0020.97,0006.77
